JCSAT-3A

Last updated on Thu Jul 03 2025 00:02:44 GMT+0000 (Coordinated Universal Time)

1 29272U 06033A 25183.63080243 -.00000337 00000+0 00000+0 0 9991 2 29272 0.0123 323.7339 0002551 146.8913 165.3628 1.00270489 44230
UTC large
Height (km)
Speed (km/s)
/
Latitude / Longitude
Inclination (degrees)
Orbital Period (minutes)
Azimuth
Elevation
Range (km)
Doppler Factor

Next 0 passes for location: London (51.5072 / 0.1276)

Sorry there are no passes over London.